Location: Middelsbur
(53.6609°N, 7.5020°E)
Time: 00:30:10
(UTC+00:00)

Cosmos 2056 Rocket - Pass Details

Date: 06 July 2020
Orbit: 741 x 801 km, 74.0° (Epoch: 03 August)

Event Time Altitude Azimuth Distance (km) Brightness Sun altitude
Rises 22:20:32 0° 332° (NNW) 3,303 8.7 -12.1°
Reaches altitude 10° 22:22:57 10° 330° (NNW) 2,376 7.4 -12.2°
Maximum altitude 22:28:19 67° 249° (WSW) 868 3.7 -12.4°
Enters shadow 22:32:24 18° 170° (S) 1,896 4.9 -12.6°
